sat.trackr.live / text

‹ back to catalog

STARLINK-36906

NORAD 68036 · 2026-040X

PAYLOAD ACTIVE UNKNOWN

§ Identity

Operator
Country
US
Launch date
2026-03-01
Launch site
AFWTR
Launch vehicle
Mass (kg)
RCS (m²)

Purposes: comms

External: N2YO · Heavens-Above · Gunter

§ Orbital elements

Epoch: 2026-09-20T03:09:26.993088Z

Period
93.91 min
Inclination
97.2856°
Eccentricity
0.0001289
Mean motion
15.33440299 rev/d
Perigee alt
464.7 km
Apogee alt
466.4 km
Semi-major
6,843.7 km
B*
3.8604e-4
RAAN
210.5070°
Arg perigee
79.2013°
Mean anomaly
280.9375°
Rev number
3,126

§ Raw data

STARLINK-369061 68036U 26040X   26263.13156242  .00012406  00000+0  38604-3 0  99942 68036  97.2856 210.5070 0001289  79.2013 280.9375 15.33440299 31265

JSON: /api/v1/satellites/68036 · /tle

For live sub-satellite position, see the globe view (requires WebGL).

§ Visibility from observer

Set your observer location to see the next 7 days of passes ≥ 10°. The values pass through the URL so the page stays shareable.

No JS? Fill the form by hand. The geolocation button needs JavaScript.